Lid_Strength_Index
14 14 14 13 13 14 14 15 15 15 15 15 15 15 16 15 14 15 15 15 15 15 15 15 15 15 14 13 15 14 15 17 15 15 18 17 16 15 15 15 16 16 15
13 13 13 13 14 14 15 15 15 15 15 15 15 16 16 16 15 15 15 14 15 15 14 15 14 14 15 14 15 14 14 15 14 15 19 18 17 15 15 16 17 17 17
14 14 14 14 15 15 15 15 15 16 16 16 16 16 16 16 16 15 15 14 13 13 12 13 14 14 14 14 14 14 14 14 15 14 16 19 18 17 18 17 18 18 18
13 14 15 15 15 15 14 14 15 15 16 15 15 15 15 16 15 15 15 15 15 14 13 12 12 13 13 13 14 14 14 14 15 16 15 19 19 18 16 18 19 19 18
12 13 13 13 13 13 13 13 13 14 14 14 15 15 15 15 15 15 14 14 14 14 13 13 13 12 11 11 13 13 13 14 14 15 15 19 19 19 18 18 17 17 18
11 12 11 11 11 11 11 11 12 12 13 13 14 15 16 14 12 11 11 12 12 13 13 12 12 13 11 10 9 9 11 13 13 13 14 15 16 16 17 17 17 19 20
13 12 12 11 11 11 11 11 12 12 13 14 14 14 14 14 12 12 11 12 13 12 13 13 12 12 12 12 11 9 9 8 9 12 13 13 14 15 16 16 17 17 17
12 13 12 12 12 12 12 13 13 13 13 13 13 14 14 14 12 11 12 13 13 13 13 13 12 12 11 11 12 12 12 11 10 10 11 11 12 14 14 14 15 15 16
12 12 13 14 15 15 16 15 15 15 15 15 14 14 15 15 12 12 12 14 15 15 14 13 13 13 11 9 11 12 12 12 9 8 8 9 9 9 13 14 15 17 18
13 14 14 15 17 18 18 18 18 18 18 17 17 17 17 17 14 13 13 15 16 16 15 14 13 12 11 10 11 12 12 12 12 11 11 9 9 10 10 14 14 17 16
15 16 17 17 19 20 20 20 20 21 20 21 21 20 19 19 18 15 14 16 16 16 16 15 14 11 10 10 8 10 11 11 11 11 12 11 10 10 11 12 14 14 15
18 19 19 21 20 20 22 22 22 22 23 23 22 22 20 19 17 16 15 14 14 17 17 15 14 12 11 9 9 8 7 7 9 11 12 12 11 11 10 11 13 14 13
22 22 22 21 21 21 22 22 23 23 23 23 22 22 22 20 19 16 16 16 15 17 17 16 14 13 12 11 10 8 8 8 9 9 11 12 11 11 10 10 11 13 14
26 22 21 21 21 21 21 22 23 23 24 23 23 22 21 20 18 17 18 19 17 17 17 17 16 14 13 13 12 9 9 9 9 9 9 10 10 11 12 11 12 13 15
22 21 20 21 22 22 22 23 23 22 21 21 20 18 18 18 16 13 13 14 14 14 16 18 18 16 16 15 12 11 12 11 10 9 8 9 10 11 12 12 13 14 15
21 20 21 21 22 21 23 23 19 18 17 15 14 15 16 13 12 12 11 11 10 11 14 16 17 17 17 16 15 13 12 11 10 9 9 9 10 11 11 12 12 14 15
22 21 21 21 22 22 23 23 25 21 17 16 15 14 14 13 12 11 10 10 10 10 14 16 17 17 17 15 14 13 12 10 9 9 9 9 10 11 11 12 13 14 14
23 21 22 22 22 22 22 22 22 23 24 22 18 16 14 14 13 12 10 10 13 13 14 16 17 16 16 16 15 13 11 9 9 8 8 8 10 11 12 13 13 14 14
22 22 22 22 22 22 22 22 22 22 22 22 21 19 18 16 14 14 14 16 17 16 15 14 15 16 16 15 14 13 11 9 9 9 8 9 10 11 13 13 14 14 14
22 22 21 22 23 23 23 22 22 22 22 22 22 22 21 18 21 21 19 19 18 18 17 17 16 14 14 12 13 11 10 9 9 8 9 10 11 11 13 14 14 15 15
22 23 23 23 24 24 23 23 23 23 22 23 22 21 16 21 22 22 21 20 19 19 18 17 14 12 11 10 8 9 9 10 9 9 11 11 11 13 13 14 15 15 16
25 25 25 26 24 24 24 24 23 23 23 23 22 21 17 21 22 22 22 21 20 19 18 17 16 15 14 13 11 11 11 11 11 12 12 12 13 14 14 15 16 17 17
26 26 26 27 25 25 25 25 24 23 23 22 22 22 22 22 22 22 22 22 21 21 20 19 18 17 15 14 14 13 14 14 14 13 14 14 15 15 16 17 17 18 18
29 28 29 28 27 26 27 26 25 24 24 23 23 23 23 22 22 22 22 22 21 21 20 20 19 18 18 16 15 15 15 14 14 14 14 15 16 16 16 17 18 19 19
32 31 31 31 31 28 28 28 26 26 25 24 24 23 23 22 22 22 22 21 21 21 21 20 20 18 17 17 17 16 15 15 15 15 15 16 17 17 18 19 19 19 20
30 31 32 32 32 31 31 29 28 27 27 25 25 24 24 24 23 22 22 21 21 21 21 21 20 19 18 16 16 15 15 15 16 16 16 17 18 19 19 20 20 20 20